FW0106 Sutton MA US current weather conditions

sailwx.info

Wind from 347 at 0 knots gusting 3

Air temperature 20.6° C
Dewpoint 17.0° C

Last reported at 2020-Aug-15 19:00 UTC.
Time now 2020-Aug-15 19:52 UTC

Location: N 42°07' W 071°46'.
View on Google Maps.

See reports from other nearby stations

  
Tides and Currents Weather Stations Pressure Air Temp Water Temp Dewpoint Dewpoint Depression Visibility Wind Speed Wind Dir Waves Ship Positions
date/time (UTC)wind fromknots sea level pressurealtimeterstation pressurevisibilityair tempwater tempwave heightnotes
2020-Aug-15 19:00 347 0 gusting 3 20.6
2020-Aug-15 18:46 073 20.0
2020-Aug-15 18:31 076 20.0
2020-Aug-15 18:16 085 0 gusting 4 19.4
2020-Aug-15 18:02 085 18.3
2020-Aug-15 17:45 073 0 gusting 5 18.3
2020-Aug-15 17:30 360 18.3
2020-Aug-15 17:15 165 18.3
2020-Aug-15 17:00 338 18.3
2020-Aug-15 16:45 343 18.3
2020-Aug-15 16:30 143 18.3
2020-Aug-15 16:15 347 18.3
2020-Aug-15 16:00 346 0 gusting 4 18.9
2020-Aug-15 15:45 050 0 gusting 4 18.9
2020-Aug-15 15:30 080 0 gusting 3 18.9
2020-Aug-15 15:15 133 0 gusting 5 18.9
2020-Aug-15 15:00 088 18.9
2020-Aug-15 14:45 276 18.9
2020-Aug-15 14:30 297 18.9
2020-Aug-15 14:15 166 0 gusting 4 18.9
2020-Aug-15 14:00 041 0 gusting 6 18.9
2020-Aug-15 13:45 324 0 gusting 5 18.9
2020-Aug-15 13:31 011 18.9
2020-Aug-15 13:16 074 0 gusting 6 18.3
2020-Aug-15 13:01 171 17.8
2020-Aug-15 12:46 014 17.8
2020-Aug-15 12:32 337 17.8
2020-Aug-15 12:17 333 17.2
2020-Aug-15 12:01 332 0 gusting 3 17.2
2020-Aug-15 11:46 303 0 gusting 6 17.2
2020-Aug-15 11:31 082 0 gusting 6 17.2
2020-Aug-15 11:16 007 17.2
2020-Aug-15 11:00 044 17.8
2020-Aug-15 10:45 010 17.8
2020-Aug-15 10:31 003 17.8
2020-Aug-15 10:16 002 17.8
2020-Aug-15 10:01 002 17.8
2020-Aug-15 09:46 342 17.8
2020-Aug-15 09:31 352 17.8
2020-Aug-15 09:16 170 17.8
2020-Aug-15 09:00 346 17.8
2020-Aug-15 08:46 319 17.8
2020-Aug-15 08:31 348 17.8
2020-Aug-15 08:17 348 17.8
2020-Aug-15 08:01 348 17.8
2020-Aug-15 07:45 357 18.3
2020-Aug-15 07:30 353 17.8
2020-Aug-15 07:15 335 17.8
2020-Aug-15 07:00 350 18.3
2020-Aug-15 06:46 354 18.3
2020-Aug-15 06:30 350 18.3
2020-Aug-15 06:15 343 18.3
2020-Aug-15 06:00 353 18.3
2020-Aug-15 05:46 338 18.3
2020-Aug-15 05:30 339 18.3
2020-Aug-15 05:15 163 18.3
2020-Aug-15 05:00 315 18.3
2020-Aug-15 04:45 304 18.3
2020-Aug-15 04:30 333 18.9
2020-Aug-15 04:15 001 18.9
2020-Aug-15 04:00 328 18.9
2020-Aug-15 03:45 317 18.9
2020-Aug-15 03:30 310 18.9
2020-Aug-15 03:15 309 18.9
2020-Aug-15 03:00 309 19.4
2020-Aug-15 02:45 124 19.4
2020-Aug-15 02:30 349 19.4
2020-Aug-15 02:15 012 19.4
2020-Aug-15 02:00 014 20.0
2020-Aug-15 01:45 014 20.0
2020-Aug-15 01:30 014 20.6
2020-Aug-15 01:15 014 21.1
2020-Aug-15 01:00 032 21.1
2020-Aug-15 00:45 007 21.7
2020-Aug-15 00:30 009 22.2
2020-Aug-15 00:15 355 22.2
2020-Aug-15 00:00 350 23.3
2020-Aug-14 23:45 329 23.3
2020-Aug-14 23:30 338 23.9
2020-Aug-14 23:15 012 24.4
2020-Aug-14 23:00 345 25.0
2020-Aug-14 22:45 342 25.0
2020-Aug-14 22:30 090 25.6
2020-Aug-14 22:15 349 25.6
2020-Aug-14 22:00 062 26.1
2020-Aug-14 21:45 022 26.1
2020-Aug-14 21:30 112 0 gusting 2 26.7
2020-Aug-14 21:15 310 27.2
2020-Aug-14 21:00 334 27.8
2020-Aug-14 20:46 326 0 gusting 4 27.8
2020-Aug-14 20:31 334 27.8
2020-Aug-14 20:16 265 27.8
2020-Aug-14 20:01 355 27.8
2020-Aug-14 19:47 081 27.8
2020-Aug-14 19:31 341 27.2
2020-Aug-14 19:16 336 26.7
2020-Aug-14 19:01 337 26.7
2020-Aug-14 18:46 013 27.2
2020-Aug-14 18:32 282 27.2
2020-Aug-14 18:16 341 27.8
2020-Aug-14 18:01 304 0 gusting 3 28.3
2020-Aug-14 17:46 039 0 gusting 4 27.8
2020-Aug-14 17:32 342 0 gusting 5 27.8
2020-Aug-14 17:17 291 0 gusting 3 27.8
2020-Aug-14 17:01 304 0 gusting 3 27.8
2020-Aug-14 16:45 180 0 gusting 3 27.2
2020-Aug-14 16:30 083 26.7
2020-Aug-14 16:18 322 26.7
2020-Aug-14 16:00 100 26.1
2020-Aug-14 15:46 024 25.6
2020-Aug-14 15:30 022 25.6
2020-Aug-14 15:16 339 25.0
2020-Aug-14 15:00 342 24.4
2020-Aug-14 14:47 332 25.0
2020-Aug-14 14:30 346 24.4
2020-Aug-14 14:16 359 23.9
2020-Aug-14 14:00 358 23.3
2020-Aug-14 13:47 310 22.8
2020-Aug-14 13:30 336 22.8
2020-Aug-14 13:16 192 22.2
2020-Aug-14 13:00 316 22.2
2020-Aug-14 12:45 008 21.7
2020-Aug-14 12:30 180 21.7
2020-Aug-14 12:15 348 21.1
2020-Aug-14 12:00 298 20.6
2020-Aug-14 11:45 293 20.6
2020-Aug-14 11:30 160 20.0
2020-Aug-14 11:15 159 19.4
2020-Aug-14 11:00 329 19.4
2020-Aug-14 10:45 329 19.4
2020-Aug-14 10:30 329 19.4
2020-Aug-14 10:15 329 19.4
2020-Aug-14 10:00 329 19.4
2020-Aug-14 09:45 329 19.4
2020-Aug-14 09:30 329 18.9
2020-Aug-14 09:15 329 18.9
2020-Aug-14 09:00 329 18.9
2020-Aug-14 08:45 329 18.9
2020-Aug-14 08:30 329 18.9
2020-Aug-14 08:16 329 18.9
2020-Aug-14 08:01 329 18.9
2020-Aug-14 07:46 329 18.9
2020-Aug-14 07:32 329 18.9
2020-Aug-14 07:15 329 19.4
2020-Aug-14 06:46 329 19.4
2020-Aug-14 06:31 329 19.4
2020-Aug-14 06:18 329 19.4
2020-Aug-14 06:01 330 19.4
2020-Aug-14 05:46 329 19.4
2020-Aug-14 05:31 329 19.4
2020-Aug-14 05:15 329 20.0
2020-Aug-14 05:00 329 20.0
2020-Aug-14 04:45 329 20.0
2020-Aug-14 04:30 329 20.6
2020-Aug-14 04:17 329 20.6
2020-Aug-14 04:03 329 20.6
2020-Aug-14 03:47 329 20.6
2020-Aug-14 03:31 329 20.6
2020-Aug-14 03:15 329 20.6
2020-Aug-14 03:01 329 21.1
2020-Aug-14 02:45 329 21.1
2020-Aug-14 02:31 329 21.1
2020-Aug-14 02:15 329 21.7
2020-Aug-14 02:01 329 21.7
2020-Aug-14 01:46 329 22.2
2020-Aug-14 01:30 329 22.8
2020-Aug-14 01:16 329 22.8
2020-Aug-14 01:01 329 23.3
2020-Aug-14 00:45 329 23.3
2020-Aug-14 00:16 329 23.9
2020-Aug-14 00:01 329 24.4
2020-Aug-13 23:00 329 25.6
2020-Aug-13 22:45 329 25.6
2020-Aug-13 22:31 329 26.1
2020-Aug-13 22:15 329 26.1
2020-Aug-13 22:01 329 26.1
2020-Aug-13 21:46 329 26.7
2020-Aug-13 21:31 329 27.2
2020-Aug-13 21:16 329 27.2
2020-Aug-13 21:00 329 27.2
2020-Aug-13 20:45 329 27.8
2020-Aug-13 20:30 329 28.3
2020-Aug-13 20:15 329 28.3
2020-Aug-13 20:00 329 28.9
2020-Aug-13 19:45 329 28.9
2020-Aug-13 19:30 338 28.9
2020-Aug-13 19:15 337 29.4
2020-Aug-13 19:01 338 29.4